(125410) = 2001 VW106

Discovered at Socorro on 2001-11-12 by LINEAR.

Orbit

Orbit type: Main Belt

Note: WebGL enabled browser required.

epoch2023-09-13.0
epoch JD2460200.5
perihelion date2020-07-30.28987
perihelion JD2459060.78987
argument of perihelion (°)33.69093
ascending node (°)266.03185
inclination (°)4.09975
eccentricity0.1894604
perihelion distance (AU)1.7789089
Tisserand w.r.t. Jupiter3.6
ΔV w.r.t. Earth (km/sec)8.3
semimajor axis (AU)2.1947217
mean anomaly (°)345.48490
mean daily motion (°/day)0.30313400
aphelion distance (AU)2.611
period (years)3.25
P-vector [x]0.49438796
P-vector [y]-0.81245801
P-vector [z]-0.30901865
Q-vector [x]0.86631042
Q-vector [y]0.43136458
Q-vector [z]0.25185481
absolute magnitude16.56
phase slope0.15
uncertainty0
referenceMPEC 2024-A48
observations used729
oppositions16
arc length (days)7918
first opposition used2001
last opposition used2023
residual rms (arc-secs)0.64
perturbers coarse indicatorM-v
perturbers precise indicator003Ek
first observation date used2001-10-14.0
last observation date used2023-06-19.0
computer nameMPCLINUX
JD of orbit computation2456966.880224
perihelion JD uncertainty (days)6.2217E-05
argument of perihelion uncertainty (°)7.9183E-05
ascending node uncertainty (°)7.7381E-05
inclination uncertainty (°)4.7275E-06
eccentricity uncertainty 4.1112E-08
perihelion distance uncertainty (AU)9.4868E-08
Minimum Orbit Intersection Distances (in AU)
for orbit epoch: 2460200.5, reference: E2024-A48
Mercury1.33694
Venus1.0546
Earth0.76436
Mars0.3628
Jupiter2.5899
Saturn6.47749
Uranus15.9392
Neptune27.5012

Observations

740 total observations over interval: 2001 10 14.32447 – 2023 06 19.311649
These data are available for download (format description).

Date (UT) J2000 RA J2000 Dec Magn Location Ref
2001 10 14.32447 03 30 45.35 +24 04 37.8 19.2   704 – Lincoln Laboratory ETS, New Mexico MPS 44882
2001 10 14.34044 03 30 44.67 +24 04 35.8 19.5   704 – Lincoln Laboratory ETS, New Mexico MPS 44882
2001 10 14.37195 03 30 43.22 +24 04 30.7 19.8   704 – Lincoln Laboratory ETS, New Mexico MPS 44882
2001 10 14.38772 03 30 42.46 +24 04 28.4 19.5   704 – Lincoln Laboratory ETS, New Mexico MPS 44882
2001 10 21.34988 03 24 57.65 +23 41 46.5 19.1   704 – Lincoln Laboratory ETS, New Mexico MPS 44882
2001 10 21.36621 03 24 56.66 +23 41 42.2 20.2   704 – Lincoln Laboratory ETS, New Mexico MPS 44882
2001 10 21.38255 03 24 55.69 +23 41 39.1 19.3   704 – Lincoln Laboratory ETS, New Mexico MPS 44882
2001 10 21.39890 03 24 54.78 +23 41 35.5 19.4   704 – Lincoln Laboratory ETS, New Mexico MPS 44882
2001 10 21.41525 03 24 53.84 +23 41 31.4 19.5   704 – Lincoln Laboratory ETS, New Mexico MPS 44882
2001 11 12.30519 03 00 59.90 +21 40 53.4 19.4   704 – Lincoln Laboratory ETS, New Mexico MPS 44882
2001 11 12.31941 03 00 58.80 +21 40 47.6 18.8   704 – Lincoln Laboratory ETS, New Mexico MPS 44882
2001 11 12.33370 03 00 57.84 +21 40 41.5 19.2   704 – Lincoln Laboratory ETS, New Mexico MPS 44882
2001 11 12.34782 03 00 56.94 +21 40 36.7 19.4   704 – Lincoln Laboratory ETS, New Mexico MPS 44882
2001 11 19.22159 02 53 26.28 +20 53 45.1 19.5   704 – Lincoln Laboratory ETS, New Mexico MPS 44882
2001 11 19.23651 02 53 25.30 +20 53 39.6 19.7   704 – Lincoln Laboratory ETS, New Mexico MPS 44882
2001 11 19.25138 02 53 24.35 +20 53 33.1 19.7   704 – Lincoln Laboratory ETS, New Mexico MPS 44882
2001 11 19.26609 02 53 23.35 +20 53 27.7 19.5   704 – Lincoln Laboratory ETS, New Mexico MPS 44882
2001 11 19.28079 02 53 22.41 +20 53 20.9 19.5   704 – Lincoln Laboratory ETS, New Mexico MPS 44882
2001 11 24.21407 02 48 30.09 +20 19 52.7 19.7   704 – Lincoln Laboratory ETS, New Mexico MPS 55146
2001 11 24.22916 02 48 29.20 +20 19 45.0 19.7   704 – Lincoln Laboratory ETS, New Mexico MPS 55146
2001 11 24.24478 02 48 28.35 +20 19 37.8 19.9   704 – Lincoln Laboratory ETS, New Mexico MPS 55146
2001 11 24.25946 02 48 27.54 +20 19 34.4 20.0   704 – Lincoln Laboratory ETS, New Mexico MPS 55146
2001 11 24.27397 02 48 26.60 +20 19 27.4 19.9   704 – Lincoln Laboratory ETS, New Mexico MPS 55146
2001 12 15.14474 02 35 21.21 +18 22 14.0 19.9   704 – Lincoln Laboratory ETS, New Mexico MPS 44882
2001 12 15.15983 02 35 20.88 +18 22 09.9 20.4   704 – Lincoln Laboratory ETS, New Mexico MPS 44882
2001 12 15.17521 02 35 20.59 +18 22 05.2 20.4   704 – Lincoln Laboratory ETS, New Mexico MPS 44882
2001 12 15.19467 02 35 20.28 +18 22 01.4 20.5   704 – Lincoln Laboratory ETS, New Mexico MPS 44882
2001 12 15.20977 02 35 19.98 +18 21 58.4 20.6   704 – Lincoln Laboratory ETS, New Mexico MPS 44882
2001 12 18.14432 02 34 37.49 +18 10 29.7 19.7   704 – Lincoln Laboratory ETS, New Mexico MPS 44882
2001 12 18.15959 02 34 37.22 +18 10 26.3 20.5   704 – Lincoln Laboratory ETS, New Mexico MPS 44882
2001 12 18.19122 02 34 36.85 +18 10 18.1 20.1   704 – Lincoln Laboratory ETS, New Mexico MPS 44882
2001 12 18.20641 02 34 36.60 +18 10 16.3 19.7   704 – Lincoln Laboratory ETS, New Mexico MPS 44882
2001 12 19.07297 02 34 27.74 +18 07 09.3 19.4   704 – Lincoln Laboratory ETS, New Mexico MPS 44882
2001 12 19.08816 02 34 27.63 +18 07 06.8 20.4   704 – Lincoln Laboratory ETS, New Mexico MPS 44882
2001 12 19.10345 02 34 27.37 +18 07 03.4 19.8   704 – Lincoln Laboratory ETS, New Mexico MPS 44882
2001 12 19.11864 02 34 27.26 +18 07 00.3 20.1   704 – Lincoln Laboratory ETS, New Mexico MPS 44882
2001 12 19.13384 02 34 27.02 +18 06 57.5 20.3   704 – Lincoln Laboratory ETS, New Mexico MPS 44882
2003 03 06.22749 10 10 45.06 +04 24 02.7 19.4 R 699 – Lowell Observatory-LONEOS MPS 74143
2003 03 06.24246 10 10 44.17 +04 24 07.3   699 – Lowell Observatory-LONEOS MPS 74143
2003 03 06.27499 10 10 42.06 +04 24 19.6   699 – Lowell Observatory-LONEOS MPS 74143
2003 03 06.29001 10 10 41.22 +04 24 26.0   699 – Lowell Observatory-LONEOS MPS 74143
2003 03 07.25564 10 09 43.12 +04 29 58.3 20.0   704 – Lincoln Laboratory ETS, New Mexico MPS 74143
2003 03 07.26973 10 09 42.22 +04 30 03.1 19.9   704 – Lincoln Laboratory ETS, New Mexico MPS 74143
2003 03 07.28279 10 09 41.40 +04 30 07.6 20.0   704 – Lincoln Laboratory ETS, New Mexico MPS 74143
2004 07 14.32881 00 16 17.69 +07 42 21.1 19.2   704 – Lincoln Laboratory ETS, New Mexico MPS 110293
2004 07 14.33942 00 16 18.33 +07 42 26.8 20.2   704 – Lincoln Laboratory ETS, New Mexico MPS 110293
2004 07 14.36040 00 16 19.53 +07 42 40.4 20.4   704 – Lincoln Laboratory ETS, New Mexico MPS 110293
2004 07 14.37051 00 16 20.11 +07 42 45.7 20.2   704 – Lincoln Laboratory ETS, New Mexico MPS 110293
2004 08 12.29934 00 32 06.76 +11 09 26.9 19.2 C 704 – Lincoln Laboratory ETS, New Mexico MPS 289751
2004 08 12.30966 00 32 06.82 +11 09 31.6 18.8 C 704 – Lincoln Laboratory ETS, New Mexico MPS 289751
2004 08 12.32022 00 32 06.76 +11 09 34.3 18.9 C 704 – Lincoln Laboratory ETS, New Mexico MPS 289751
2004 08 12.33022 00 32 06.76 +11 09 37.1 19.1 C 704 – Lincoln Laboratory ETS, New Mexico MPS 289751
2004 08 12.34021 00 32 06.83 +11 09 39.7 18.7 C 704 – Lincoln Laboratory ETS, New Mexico MPS 289751
2004 08 26.34927 00 29 32.21 +11 39 26.7 18.9 R 703 – Catalina Sky Survey MPS 112145
2004 08 26.35998 00 29 31.89 +11 39 27.4 17.8 R 703 – Catalina Sky Survey MPS 112145
2004 08 26.37071 00 29 31.54 +11 39 27.3 17.8 R 703 – Catalina Sky Survey MPS 112145
2004 08 26.38154 00 29 31.24 +11 39 26.9 18.4 R 703 – Catalina Sky Survey MPS 112145
2004 09 08.32558 00 21 23.25 +11 17 06.5 18.1   644 – Palomar Mountain/NEAT MPS 112635
2004 09 08.35046 00 21 21.98 +11 17 01.2 18.2   644 – Palomar Mountain/NEAT MPS 112635
2004 09 08.37103 00 21 20.93 +11 16 56.7 18.2   644 – Palomar Mountain/NEAT MPS 112635
2004 09 10.28748 00 19 46.26 +11 09 34.4 19.0   704 – Lincoln Laboratory ETS, New Mexico MPS 112733
2004 09 10.29870 00 19 45.74 +11 09 30.8 19.4   704 – Lincoln Laboratory ETS, New Mexico MPS 112733
2004 09 10.30993 00 19 45.03 +11 09 28.6 19.3   704 – Lincoln Laboratory ETS, New Mexico MPS 112733
2004 09 10.32115 00 19 44.47 +11 09 25.3 19.6   704 – Lincoln Laboratory ETS, New Mexico MPS 112733
2004 09 10.33239 00 19 43.85 +11 09 22.4 19.6   704 – Lincoln Laboratory ETS, New Mexico MPS 112733
2004 09 13.29028 00 17 09.34 +10 56 02.8 18.0   704 – Lincoln Laboratory ETS, New Mexico MPS 112733
2004 09 13.30232 00 17 08.68 +10 55 59.2 18.2   704 – Lincoln Laboratory ETS, New Mexico MPS 112733
2004 09 13.31407 00 17 07.99 +10 55 56.0 18.0   704 – Lincoln Laboratory ETS, New Mexico MPS 112733
2004 09 13.32605 00 17 07.30 +10 55 52.7 18.4   704 – Lincoln Laboratory ETS, New Mexico MPS 112733
2004 09 13.33778 00 17 06.65 +10 55 49.0 18.5   704 – Lincoln Laboratory ETS, New Mexico MPS 112733
2004 09 13.40127 00 17 03.11 +10 55 30.2 18.1   644 – Palomar Mountain/NEAT MPS 112733
2004 09 13.42302 00 17 01.87 +10 55 24.0 18.1   644 – Palomar Mountain/NEAT MPS 112733
2004 09 13.44860 00 17 00.43 +10 55 16.3 18.1   644 – Palomar Mountain/NEAT MPS 112733
2004 09 15.33911 00 15 17.27 +10 45 32.5 18.2   704 – Lincoln Laboratory ETS, New Mexico MPS 112733
2004 09 15.35075 00 15 16.60 +10 45 29.2 18.3   704 – Lincoln Laboratory ETS, New Mexico MPS 112733
2004 09 15.36234 00 15 15.96 +10 45 25.4 18.2   704 – Lincoln Laboratory ETS, New Mexico MPS 112733
2004 09 15.37405 00 15 15.28 +10 45 21.1 18.5   704 – Lincoln Laboratory ETS, New Mexico MPS 112733
2004 09 15.38565 00 15 14.58 +10 45 17.3 18.0   704 – Lincoln Laboratory ETS, New Mexico MPS 112733
2004 09 16.28242 00 14 24.92 +10 40 22.9 17.8   704 – Lincoln Laboratory ETS, New Mexico MPS 112733
2004 09 16.29406 00 14 24.24 +10 40 18.9 18.3   704 – Lincoln Laboratory ETS, New Mexico MPS 112733
2004 09 16.30596 00 14 23.54 +10 40 14.6 18.2   704 – Lincoln Laboratory ETS, New Mexico MPS 112733
2004 09 16.31784 00 14 22.84 +10 40 10.8 18.1   704 – Lincoln Laboratory ETS, New Mexico MPS 112733
2004 09 16.32959 00 14 22.14 +10 40 06.9 17.7   704 – Lincoln Laboratory ETS, New Mexico MPS 112734
2004 09 18.30408 00 12 30.47 +10 28 39.8 17.9   704 – Lincoln Laboratory ETS, New Mexico MPS 114254
